GALAXY 32

导读

**GALAXY 32(又名Galaxy 17R)是美国国际通信卫星组织(Intelsat)的通信卫星,属于银河卫星系列,由马克萨科技公司研发。** **2022年11月12日,SpaceX在佛罗里达州卡纳维拉尔角SLC-40发射场,用经过14次飞行的猎鹰9号火箭将其与Galaxy 31一同送入太空,本次任务为消耗性发射不回收一级芯级。GALAXY 32将进入地球静止轨道,替换该轨道上老化的在轨卫星,为美国区域提供通信服务,卫星总重约3.3吨,轨道倾角为0°。**

Basic Information
目录编号:
54244
目录名称:
GALAXY 32
国际标识:
2022-153B
轨道中心:
EARTH
卫星名称:
GALAXY 32
卫星全名:
--
卫星状态:
在轨 (已飞行1403 天)
发射日期:
2022-11-12 UTC
国别 :
美国 (US)
星等 :
--
This satellite is enrolled in the Space Conjunction Data Service (SCDS) and the current flight risk assessment level is: No High Risk
Orbit Information
数据来源 国际轨道数据 AOE轨道数据
星历时间 2026-09-15T19:36:34+0800
11小时前
查看轨道信息
2026-09-12T13:00:00+0800
3天前
查看轨道信息
半长轴 42165.205km 42165.037km
偏心率 0.0000307 0.0000024
轨道倾角 0.012° 0.023°
近地点辐角 270.820° 206.415°
升交点赤经 161.850° 129.790°
平近点角 4.924° 359.014°
近地点 35785.773km 35786.798km
远地点 35788.363km 35787.002km
周期 1436.121分钟 1436.112分钟
每日圈数 1.002701 1.002707
Detailed Information
使用方式:
暂无
2D Orbit Map
3D Orbit Map
Orbit Altitude Analysis Chart
Orbit Inclination Analysis Chart
Orbit Comprehensive Analysis Chart
View Comprehensive Chart
Miss Distance Evolution Trend with All Objects Subscribe to Flight Safety Assessment
Collision Probability Evolution Trend with All Objects Subscribe to Flight Safety Assessment